SL-14 R/B

Satellite information

Favourite Embed

Satellite Type and Status

ROCKET BODYIN ORBIT

Key statistics

Satellite SL-14 R/B at a glance.

Uptime

12702

Days in orbit

Revolutions

≈ 13.8

Per day

Orbit

LEO

Low Earth Orbit

Inclination

82.5

Latest

Satellite identification and parameters

Extended collection of information and parameters for SL-14 R/B.

Object identification

Identified? True

Debris? False

Object name: SL-14 R/B

International designator: 1990-086B

Object number (NORAD): 20827

Object ID (CCSDS): 20827

Country: COMMONWEALTH OF INDEPENDENT STATES (CIS)

Current information (Y/N): Y

RCS size: LARGE

Orbital parameters

Period: 103.999 minutes

Inclination: 82.5295 deg

SMA: 7325.652 km

Apoapsis: 1022.658 km

Periapsis: 872.377 km

RAAN: 116.8546 deg

Eccentricy: 0.0102572

Argument of periapsis: 220.1133 deg

Mean anomaly: 139.2424 deg

Mean motion: 13.84628664 rev/day

Mean motion (dot): 0.00000021 rev/day2

B* drag term: 0.0000057053 1/REarth

Two-line elements (TLE)

Creation date: July 7, 2025, 10:26 p.m.

Reference frame: TEME

Reference center: EARTH

Epoch: July 7, 2025, 9:19 p.m. UTC

TLE line 0: 0 SL-14 R/B

TLE line 1: 1 20827U 90086B 25188.88883136 .00000021 00000-0 57053-5 0 9999

TLE line 2: 2 20827 82.5295 116.8546 0102572 220.1133 139.2424 13.84628664756654

Live tracking on map

Real-time ground track for satellite SL-14 R/B.

In-orbit conjunctions

A list of the most updated potential collisions computed for object SL-14 R/B.

Target Orbit TCA Probability of collision Miss distance Type
FENGYUN 1C DEB SSO 2025-02-26 16:19:23 0.0002552829 187.0 (m) DEBRIS

Associated space launch

Second generation soviet meteorological satellite

SL-14 R/B was lifted into orbit during the mission ‘Tsiklon-3 | Meteor-2 20’, on board a Tsiklon-3 space rocket.

The launch took place on Sept. 28, 1990, 7:30 a.m. from 32/1.

For more information about the launch, click the button.

Launch to space Tsiklon-3 | Meteor-2 20
Tsiklon-3 | Meteor-2 20

Agency: N/A

Status: Launch Successful

Launch date: Sept. 28, 1990, 7:30 a.m. UTC

Rocket: Tsiklon-3

Launch pad: 32/1

Location: Plesetsk Cosmodrome, Russian Federation

...

Latest news about this satellite

There are no fresh news available about this satellite. Check back as we update our databases every day.


Newsletter sign-up

Weekly statistics, charts and insights to help you stay on top of the space industry.